Flag for U.S.A. Weather past 2 weeks in Bridgewater, Massachusetts, U.S.A.

Now
80 °F

Scattered clouds.


Feels Like: 82 °F
Forecast: 68 / 80 °F
Wind: 13 mph from Southwest

Location: Taunton Municipal Airport

Current Time: Jul 28, 2014 at 1:04:53 PM

Latest Report: Jul 28, 2014 at 11:52 AM


Visibility: 10 mi

Pressure: 29.56 "Hg

Humidity: 64%

Dew point: 67 °F

Location of BridgewaterLocation

Historic Weather in Bridgewater — Graph

°F

Bridgewater temperature yesterday

Maximum temperature yesterday: 76 °F (at 9:52 AM)
Minimum temperature yesterday: 63 °F (at 12:52 AM)
Average temperature yesterday: 71 °F

Past Weeks' High & Low Weather Summary

 TemperatureHumidityPressure
High86 °F (Jul 23, 12:52 PM)97% (Jul 17, 5:52 AM)30.26 "Hg (Jul 17, 5:52 AM)
Low55 °F (Jul 18, 4:52 AM)36% (Jul 25, 1:52 PM)29.56 "Hg (Jul 28, 11:52 AM)
Average71 °F79%29.96 "Hg
* Reported Jul 13 11:52 AM — Jul 28 11:52 AM, Bridgewater, Weather by CustomWeather, © 2014

Note: Actual official high and low records may vary slightly from our data, if they occured in-between our weather recording intervals... More about our weather records

Advertising

Bridgewater weather history for previous 24 hours

 ConditionsComfort  
Time TempWeatherWind HumidityBarometerVisibility
11:52 AM
Jul 28
80 °FScattered clouds.13 mph64%29.56 "Hg10 mi
10:52 AM80 °FPartly sunny.10 mph67%29.57 "Hg10 mi
9:52 AM79 °FSunny.10 mph69%29.56 "Hg10 mi
8:52 AM76 °FBroken clouds.10 mph85%29.57 "Hg9 mi
8:01 AM74 °FFog.8 mph91%29.59 "Hg5 mi
6:52 AM73 °FFog.6 mph90%29.61 "Hg6 mi
5:52 AM73 °FLow clouds.3 mph90%29.62 "Hg7 mi
4:52 AM72 °FLow clouds.3 mph93%29.63 "Hg8 mi
3:52 AM72 °FLow clouds.6 mph93%29.64 "Hg7 mi
2:52 AM72 °FLow clouds.5 mph93%29.65 "Hg7 mi
1:52 AM72 °FLow clouds.5 mph91%29.66 "Hg7 mi
12:52 AM71 °FFog.5 mph93%29.68 "Hg5 mi
11:52 PM
Jul 27
70 °FFog.5 mph97%29.70 "Hg6 mi
10:52 PM70 °FPassing clouds.5 mph97%29.70 "Hg8 mi
9:52 PM71 °FPassing clouds.No wind93%29.70 "Hg10 mi
8:52 PM73 °FPassing clouds.5 mph88%29.70 "Hg10 mi
7:52 PM73 °FOvercast.6 mph88%29.69 "Hg10 mi
6:52 PM74 °FOvercast.5 mph85%29.70 "Hg10 mi
5:52 PM74 °FOvercast.10 mph85%29.70 "Hg10 mi
4:52 PM73 °FOvercast.8 mph88%29.72 "Hg10 mi
3:52 PM74 °FOvercast.12 mph85%29.72 "Hg10 mi
2:52 PM72 °FMostly cloudy.8 mph91%29.74 "Hg10 mi
1:52 PM72 °FLight rain. More clouds than sun.8 mph87%29.77 "Hg10 mi
Weather by CustomWeather, © 2014

See weather overviewHow to use our weather pages